{"data":{"norad_id":58280,"epoch":"2026-09-02T16:01:05.947680Z","epoch_age_seconds":1555041,"freshness":"OLD","line1":"1 58280U 23174AA  26245.66742995  .00025283  00000+0  32002-3 0  9996","line2":"2 58280  97.3853 339.6579 0004448 204.8628 155.2415 15.59480957157809","mean_motion":15.59480957,"eccentricity":0.0004448,"inclination_deg":97.3853,"raan_deg":339.6579,"arg_perigee_deg":204.8628,"mean_anomaly_deg":155.2415,"bstar":0.00032002,"rev_number":15780,"period_min":92.338415133337,"perigee_km":386.14814682869,"apogee_km":392.16833267397,"semimajor_km":6767.2952397513,"source":"CELESTRAK","updated_at":"2026-09-03T09:05:42.354912Z"}}